Current weather by "City, St" or "zip code"  
 

Current Conditions: East Hampton, East Hampton Airport, NY

Overcast


56.0 F

Last Updated on Oct 24 2020, 9:55 pm EDT
Humidity: 69%
Wind Speed: N 11.5 G 16.1 mph
Barometer 29.99 in
Dewpoint: 45.5 F
Visibility: 10.00 mi
Precip: --
Heat Index: NA
Wind Chill: 53 F
Current conditions at:

East Hampton, East Hampton Airport, NY (KHTO)

Lat: 40.95944 Lon: 72.25194

Local Radar Image active severe weather and emergency alerts image image weather storm and storm spotter reports image weather observation monitoring service image
Local
Radar
Active
Alerts
Storm Reports Obs
Monitoring

Sign-up For Email & Text Message Weather Alert Notification Services



Advertise Here

Observation History for East Hampton, East Hampton Airport, NY


Time Wind
(mph)
Vis
(mi)
Weather Precip (in) Temperature (F) Relative
Humidity
Wind
Chill
(F)
Heat
Index
(F)
Pressure
Air Dwpt altimeter
(in)
sea level
(mb)
Rmks
9:55 pm EDT N 11.5 G 16.1 10.00 Overcast -- 56.0 45.5 69% 53 NA 29.99 M
8:55 pm EDT NW 5.8 10.00 Fair -- 57.0 46.0 67% 56 NA 29.96 M
8:35 pm EDT N 10.4 10.00 Fair -- 58.0 46.6 67% 56 NA 29.95 M
7:55 pm EDT NW 4.6 10.00 Partly Cloudy -- 58.0 51.3 78% 58 NA 29.94 M
7:35 pm EDT N 3.5 10.00 Overcast -- 59.0 52.9 80% NA NA 29.93 M
6:55 pm EDT NW 3.5 10.00 Overcast -- 60.0 55.2 84% NA NA 29.92 M
5:55 pm EDT N 5.8 10.00 Overcast -- 61.0 57.6 88% 61 NA 29.90 M
5:35 pm EDT N 13.8 G 17.3 10.00 Overcast -- 63.0 60.4 92% 61 NA 29.89 M
4:55 pm EDT NW 3.5 5.00 Fog/Mist -- 64.0 61.3 92% NA NA 29.88 M
4:35 pm EDT W 3.5 10.00 Overcast -- 65.0 61.0 88% NA NA 29.87 M
3:55 pm EDT W 5.8 10.00 Overcast -- 65.0 60.8 85% NA NA 29.86 M
3:35 pm EDT W 6.9 10.00 Overcast -- 65.0 60.6 85% NA NA 29.86 M
2:55 pm EDT W 4.6 10.00 Overcast -- 65.0 60.4 84% NA NA 29.86 M
1:55 pm EDT SW 5.8 10.00 Overcast -- 65.0 60.1 83% NA NA 29.87 M
1:35 pm EDT SW 6.9 10.00 Overcast -- 65.0 59.4 83% NA NA 29.88 M
12:55 pm EDT W 8.1 10.00 Overcast -- 64.0 59.2 83% NA NA 29.88 M
11:55 am EDT SW 6.9 10.00 Overcast -- 63.0 60.1 92% 63 NA 29.91 M
10:55 am EDT SW 8.1 10.00 Overcast -- 62.0 59.2 89% 61 NA 29.93 M
9:55 am EDT SW 6.9 10.00 Overcast -- 62.0 58.3 87% 62 NA 29.94 M
8:55 am EDT S 6.9 10.00 Overcast -- 61.0 57.4 88% 60 NA 29.95 M
7:55 am EDT N 0.0 10.00 Overcast -- 59.0 55.9 89% NA NA 29.96 M
7:35 am EDT S 3.5 10.00 Overcast -- 59.0 55.9 90% NA NA 29.96 M
6:55 am EDT N 0.0 10.00 Overcast -- 58.0 55.4 91% NA NA 29.97 M
6:35 am EDT N 0.0 10.00 Overcast -- 58.0 55.0 91% NA NA 29.98 M

Regional Weather Observation


New Haven, Tweed-New Haven Airport, CT (KHVN)

Fair
53.0 F

Groton / New London, Groton / New London Airport, CT (KGON)

A Few Clouds
55.0 F

East Hampton, East Hampton Airport, NY (KHTO)

Overcast
56.0 F

Meriden, Meriden Markham Municipal Airport, CT (KMMK)

Fair
50.0 F

The Gabreski Airport, NY (KFOK)

Mostly Cloudy
55.0 F

Hartford, Hartford-Brainard Airport, CT (KHFD)

Fair
51.0 F